| time (UTC) | temp F | wind direction | speed knots | gust knots | rain 1hr in | rain 24hr in | rain mn in | humidity % | barometer mb |
| 20260503213329 | 67 | 126 | 0.0 | 4.3 | 0.00 | 0.00 | 0.00 | 25 | 1022.4 |
| 20260503212819 | 67 | 280 | 0.9 | 4.3 | 0.00 | 0.00 | 0.00 | 24 | 1022.5 |
| 20260503212349 | 67 | 115 | 0.9 | 4.3 | 0.00 | 0.00 | 0.00 | 23 | 1022.4 |
| 20260503211819 | 67 | 101 | 0.9 | 4.3 | 0.00 | 0.00 | 0.00 | 23 | 1022.6 |
| 20260503211332 | 67 | 11 | 0.9 | 4.3 | 0.00 | 0.00 | 0.00 | 24 | 1022.6 |
| 20260503210823 | 68 | 63 | 0.9 | 3.5 | 0.00 | 0.00 | 0.00 | 26 | 1022.7 |
| 20260503210334 | 68 | 117 | 2.6 | 4.3 | 0.00 | 0.00 | 0.00 | 25 | 1022.5 |
| 20260503205824 | 68 | 198 | 1.7 | 4.3 | 0.00 | 0.00 | 0.00 | 24 | 1022.6 |
| 20260503205355 | 69 | 101 | 1.7 | 3.5 | 0.00 | 0.00 | 0.00 | 26 | 1022.7 |
| 20260503204825 | 70 | 111 | 1.7 | 2.6 | 0.00 | 0.00 | 0.00 | 25 | 1022.8 |
| 20260503204316 | 70 | 114 | 0.0 | 4.3 | 0.00 | 0.00 | 0.00 | 25 | 1022.8 |
| 20260503203826 | 69 | 134 | 0.0 | 4.3 | 0.00 | 0.00 | 0.00 | 25 | 1022.9 |
| 20260503203317 | 70 | 103 | 0.9 | 4.3 | 0.00 | 0.00 | 0.00 | 23 | 1022.9 |
| 20260503202831 | 69 | 123 | 0.9 | 4.3 | 0.00 | 0.00 | 0.00 | 24 | 1022.9 |
| 20260503202321 | 69 | 127 | 1.7 | 3.5 | 0.00 | 0.00 | 0.00 | 24 | 1022.9 |
| 20260503201832 | 69 | 308 | 0.0 | 3.5 | 0.00 | 0.00 | 0.00 | 23 | 1023.1 |
| 20260503201323 | 69 | 218 | 0.0 | 4.3 | 0.00 | 0.00 | 0.00 | 23 | 1023.1 |
| 20260503200834 | 69 | 112 | 0.9 | 3.5 | 0.00 | 0.00 | 0.00 | 21 | 1023.2 |
| 20260503200324 | 70 | 75 | 0.9 | 3.5 | 0.00 | 0.00 | 0.00 | 23 | 1023.3 |
| 20260503195835 | 70 | 115 | 0.9 | 2.6 | 0.00 | 0.00 | 0.00 | 22 | 1023.4 |
| 20260503195326 | 69 | 141 | 0.0 | 2.6 | 0.00 | 0.00 | 0.00 | 23 | 1023.5 |
| 20260503194821 | 69 | 117 | 0.9 | 2.6 | 0.00 | 0.00 | 0.00 | 23 | 1023.5 |
| 20260503194330 | 68 | 129 | 0.9 | 2.6 | 0.00 | 0.00 | 0.00 | 21 | 1023.7 |
| 20260503193821 | 68 | 205 | 0.9 | 5.2 | 0.00 | 0.00 | 0.00 | 25 | 1023.9 |
| 20260503193332 | 69 | 113 | 3.5 | 5.2 | 0.00 | 0.00 | 0.00 | 22 | 1023.8 |
| 20260503192822 | 69 | 310 | 0.9 | 4.3 | 0.00 | 0.00 | 0.00 | 23 | 1024.0 |
| 20260503192332 | 69 | 100 | 1.7 | 4.3 | 0.00 | 0.00 | 0.00 | 27 | 1024.0 |
| 20260503191821 | 69 | 252 | 0.0 | 3.5 | 0.00 | 0.00 | 0.00 | 25 | 1023.9 |
| 20260503191331 | 69 | 102 | 1.7 | 3.5 | 0.00 | 0.00 | 0.00 | 26 | 1024.0 |
| 20260503190822 | 69 | 135 | 0.9 | 3.5 | 0.00 | 0.00 | 0.00 | 25 | 1024.0 |
| 20260503190332 | 69 | 110 | 1.7 | 3.5 | 0.00 | 0.00 | 0.00 | 27 | 1024.0 |
| 20260503185824 | 69 | 77 | 0.9 | 3.5 | 0.00 | 0.00 | 0.00 | 28 | 1024.1 |
| 20260503185355 | 68 | 218 | 0.9 | 4.3 | 0.00 | 0.00 | 0.00 | 34 | 1024.2 |
| 20260503184824 | 68 | 219 | 0.0 | 4.3 | 0.00 | 0.00 | 0.00 | 32 | 1024.2 |
| 20260503184336 | 68 | 182 | 0.9 | 3.5 | 0.00 | 0.00 | 0.00 | 33 | 1024.4 |
| 20260503183825 | 69 | 110 | 0.9 | 1.7 | 0.00 | 0.00 | 0.00 | 31 | 1024.5 |
| 20260503183316 | 68 | 195 | 0.0 | 3.5 | 0.00 | 0.00 | 0.00 | 36 | 1024.6 |
| 20260503182827 | 68 | 263 | 0.9 | 5.2 | 0.00 | 0.00 | 0.00 | 34 | 1024.6 |
| 20260503182317 | 68 | 252 | 0.9 | 5.2 | 0.00 | 0.00 | 0.00 | 34 | 1024.5 |
| 20260503181828 | 68 | 250 | 0.0 | 3.5 | 0.00 | 0.00 | 0.00 | 34 | 1024.5 |
| 20260503181316 | 68 | 278 | 0.0 | 2.6 | 0.00 | 0.00 | 0.00 | 35 | 1024.6 |
| 20260503180826 | 68 | 51 | 0.9 | 2.6 | 0.00 | 0.00 | 0.00 | 35 | 1024.6 |
| 20260503180321 | 67 | 88 | 0.9 | 1.7 | 0.00 | 0.00 | 0.00 | 37 | 1024.7 |
| 20260503175832 | 67 | 93 | 0.0 | 3.5 | 0.00 | 0.00 | 0.00 | 36 | 1024.7 |
| 20260503175343 | 67 | 249 | 0.9 | 3.5 | 0.00 | 0.00 | 0.00 | 35 | 1024.8 |
| 20260503174852 | 67 | 218 | 0.9 | 3.5 | 0.00 | 0.00 | 0.00 | 36 | 1024.9 |
| 20260503174321 | 66 | 150 | 0.0 | 2.6 | 0.00 | 0.00 | 0.00 | 36 | 1024.9 |
| 20260503173851 | 66 | 238 | 0.0 | 2.6 | 0.00 | 0.00 | 0.00 | 36 | 1025.0 |
| 20260503173321 | 66 | 140 | 0.0 | 2.6 | 0.00 | 0.00 | 0.00 | 35 | 1025.1 |
| 20260503172830 | 66 | 228 | 0.0 | 0.9 | 0.00 | 0.00 | 0.00 | 40 | 1025.1 |
| 20260503172321 | 65 | 146 | 0.0 | 2.6 | 0.00 | 0.00 | 0.00 | 39 | 1025.2 |
| 20260503171832 | 64 | 193 | 0.9 | 2.6 | 0.00 | 0.00 | 0.00 | 38 | 1025.3 |
| 20260503171323 | 64 | 70 | 0.9 | 4.3 | 0.00 | 0.00 | 0.00 | 41 | 1025.3 |
| 20260503170818 | 64 | 256 | 1.7 | 4.3 | 0.00 | 0.00 | 0.00 | 37 | 1025.5 |
| 20260503170327 | 63 | 195 | 0.9 | 2.6 | 0.00 | 0.00 | 0.00 | 39 | 1025.5 |
| 20260503150832 | 52 | 136 | 0.0 | 0.9 | 0.00 | 0.00 | 0.00 | 59 | 1027.0 |
| 20260503150343 | 51 | 105 | 0.0 | 2.6 | 0.00 | 0.00 | 0.00 | 56 | 1026.9 |
| 20260503131333 | 40 | 108 | 0.0 | 0.0 | 0.00 | 0.00 | 0.00 | 96 | 1027.2 |
| 20260503130825 | 39 | 108 | 0.0 | 0.0 | 0.00 | 0.00 | 0.00 | 96 | 1027.2 |
| 20260503130319 | 38 | 108 | 0.0 | 0.0 | 0.00 | 0.00 | 0.00 | 96 | 1027.2 |
| 20260503110327 | 34 | 108 | 0.0 | 0.0 | 0.00 | 0.00 | 0.00 | 95 | 1026.2 |
| 20260503090319 | 36 | 108 | 0.0 | 0.0 | 0.00 | 0.00 | 0.00 | 93 | 1025.0 |
| 20260503081325 | 37 | 108 | 0.0 | 0.0 | 0.00 | 0.00 | 0.00 | 93 | 1024.6 |
| 20260503080834 | 37 | 108 | 0.0 | 0.0 | 0.00 | 0.00 | 0.00 | 93 | 1024.6 |
| 20260503080324 | 38 | 108 | 0.0 | 0.0 | 0.00 | 0.00 | 0.00 | 92 | 1024.5 |
| 20260503072840 | 38 | 108 | 0.0 | 0.0 | 0.00 | 0.00 | 0.00 | 92 | 1024.3 |
| 20260503072329 | 38 | 108 | 0.0 | 0.0 | 0.00 | 0.00 | 0.00 | 92 | 1024.1 |
| 20260503071820 | 39 | 108 | 0.0 | 0.0 | 0.00 | 0.00 | 0.00 | 91 | 1024.1 |
| 20260503071331 | 39 | 108 | 0.0 | 0.0 | 0.00 | 0.00 | 0.00 | 91 | 1024.1 |
| 20260503070842 | 39 | 108 | 0.0 | 0.0 | 0.00 | 0.00 | 0.00 | 91 | 1024.0 |
| 20260503070317 | 39 | 108 | 0.0 | 0.0 | 0.00 | 0.00 | 0.00 | 91 | 1024.0 |
| 20260503060328 | 41 | 108 | 0.0 | 0.0 | 0.00 | 0.00 | 0.00 | 87 | 1023.8 |
| 20260503054839 | 42 | 108 | 0.0 | 0.0 | 0.00 | 0.00 | 0.00 | 85 | 1023.8 |
| 20260503054329 | 42 | 108 | 0.0 | 0.0 | 0.00 | 0.00 | 0.00 | 85 | 1023.8 |
| 20260503053821 | 42 | 108 | 0.0 | 0.0 | 0.00 | 0.00 | 0.00 | 84 | 1023.8 |
| 20260503053334 | 43 | 108 | 0.0 | 0.0 | 0.00 | 0.00 | 0.00 | 84 | 1023.9 |
| 20260503052824 | 43 | 108 | 0.0 | 0.0 | 0.00 | 0.00 | 0.00 | 84 | 1023.9 |
| 20260503052334 | 43 | 108 | 0.0 | 0.0 | 0.00 | 0.00 | 0.00 | 84 | 1023.8 |
| 20260503051843 | 43 | 108 | 0.0 | 0.0 | 0.00 | 0.00 | 0.00 | 85 | 1023.9 |
| 20260503051331 | 43 | 108 | 0.0 | 0.0 | 0.00 | 0.00 | 0.00 | 84 | 1024.0 |
| 20260503050823 | 42 | 108 | 0.0 | 0.0 | 0.00 | 0.00 | 0.00 | 84 | 1023.9 |
| 20260503050334 | 42 | 108 | 0.0 | 0.0 | 0.00 | 0.00 | 0.00 | 85 | 1023.9 |
| 20260503045825 | 42 | 108 | 0.0 | 0.0 | 0.00 | 0.00 | 0.00 | 84 | 1023.9 |
| 20260503045356 | 42 | 108 | 0.0 | 0.0 | 0.00 | 0.00 | 0.00 | 85 | 1023.9 |
| 20260503044846 | 42 | 108 | 0.0 | 0.0 | 0.00 | 0.00 | 0.00 | 85 | 1023.9 |
| 20260503044319 | 42 | 108 | 0.0 | 0.0 | 0.00 | 0.00 | 0.00 | 85 | 1023.9 |
| 20260503043828 | 42 | 108 | 0.0 | 0.0 | 0.00 | 0.00 | 0.00 | 85 | 1023.8 |
| 20260503043318 | 42 | 108 | 0.0 | 0.0 | 0.00 | 0.00 | 0.00 | 85 | 1023.9 |
| 20260503042829 | 41 | 108 | 0.0 | 0.0 | 0.00 | 0.00 | 0.00 | 85 | 1023.8 |
| 20260503042320 | 41 | 108 | 0.0 | 0.0 | 0.00 | 0.00 | 0.00 | 85 | 1023.7 |
| 20260503041829 | 41 | 108 | 0.0 | 0.0 | 0.00 | 0.00 | 0.00 | 85 | 1023.6 |
| 20260503041321 | 41 | 108 | 0.0 | 0.0 | 0.00 | 0.00 | 0.00 | 85 | 1023.6 |
| 20260503040851 | 41 | 108 | 0.0 | 0.0 | 0.00 | 0.00 | 0.00 | 85 | 1023.6 |
| 20260503040322 | 41 | 108 | 0.0 | 0.0 | 0.00 | 0.00 | 0.00 | 85 | 1023.5 |
| 20260503035824 | 41 | 108 | 0.0 | 0.0 | 0.00 | 0.00 | 0.00 | 85 | 1023.5 |
| 20260503035320 | 41 | 108 | 0.0 | 0.0 | 0.00 | 0.00 | 0.00 | 84 | 1023.5 |
| 20260503034831 | 41 | 108 | 0.0 | 0.0 | 0.00 | 0.00 | 0.00 | 84 | 1023.4 |
| 20260503034323 | 41 | 108 | 0.0 | 0.0 | 0.00 | 0.00 | 0.00 | 84 | 1023.3 |
| 20260503033831 | 41 | 108 | 0.0 | 0.0 | 0.00 | 0.00 | 0.00 | 83 | 1023.3 |
| 20260503033321 | 41 | 108 | 0.0 | 0.0 | 0.00 | 0.00 | 0.00 | 83 | 1023.2 |
| 20260503032831 | 41 | 108 | 0.0 | 0.0 | 0.00 | 0.00 | 0.00 | 83 | 1023.3 |
| 20260503032322 | 41 | 108 | 0.0 | 0.0 | 0.00 | 0.00 | 0.00 | 83 | 1023.3 |
| 20260503031833 | 41 | 108 | 0.0 | 0.0 | 0.00 | 0.00 | 0.00 | 82 | 1023.3 |
| 20260503031327 | 42 | 108 | 0.0 | 0.0 | 0.00 | 0.00 | 0.00 | 82 | 1023.3 |
| 20260503030818 | 42 | 108 | 0.0 | 0.0 | 0.00 | 0.00 | 0.00 | 81 | 1023.2 |
| 20260503030326 | 42 | 108 | 0.0 | 0.0 | 0.00 | 0.00 | 0.00 | 80 | 1023.2 |
| 20260503025836 | 42 | 108 | 0.0 | 0.0 | 0.00 | 0.00 | 0.00 | 80 | 1023.1 |
| 20260503025346 | 42 | 108 | 0.0 | 0.0 | 0.00 | 0.00 | 0.00 | 79 | 1023.1 |
| 20260503024834 | 43 | 108 | 0.0 | 0.0 | 0.00 | 0.00 | 0.00 | 79 | 1023.0 |
| 20260503024324 | 43 | 108 | 0.0 | 0.0 | 0.00 | 0.00 | 0.00 | 78 | 1023.0 |
| 20260503023855 | 43 | 108 | 0.0 | 0.0 | 0.00 | 0.00 | 0.00 | 77 | 1022.9 |
| 20260503023324 | 43 | 108 | 0.0 | 0.0 | 0.00 | 0.00 | 0.00 | 76 | 1022.9 |
| 20260503022816 | 44 | 109 | 0.0 | 0.0 | 0.00 | 0.00 | 0.00 | 76 | 1022.8 |
| 20260503022326 | 44 | 108 | 0.0 | 0.9 | 0.00 | 0.00 | 0.00 | 75 | 1022.7 |
| 20260503021840 | 44 | 108 | 0.0 | 0.0 | 0.00 | 0.00 | 0.00 | 74 | 1022.6 |
| 20260503021329 | 44 | 108 | 0.0 | 0.0 | 0.00 | 0.00 | 0.00 | 74 | 1022.6 |
| 20260503020820 | 45 | 108 | 0.0 | 0.0 | 0.00 | 0.00 | 0.00 | 73 | 1022.6 |
| 20260503020331 | 45 | 108 | 0.0 | 0.0 | 0.00 | 0.00 | 0.00 | 72 | 1022.6 |
| 20260503015822 | 45 | 108 | 0.0 | 0.0 | 0.00 | 0.00 | 0.00 | 71 | 1022.5 |
| 20260503015332 | 46 | 108 | 0.0 | 0.0 | 0.00 | 0.00 | 0.00 | 70 | 1022.4 |
| 20260503014824 | 46 | 108 | 0.0 | 0.0 | 0.00 | 0.00 | 0.00 | 69 | 1022.3 |
| 20260503014334 | 47 | 108 | 0.0 | 0.0 | 0.00 | 0.00 | 0.00 | 68 | 1022.2 |
| 20260503013824 | 47 | 108 | 0.0 | 0.0 | 0.00 | 0.00 | 0.00 | 66 | 1022.1 |
| 20260503013319 | 48 | 108 | 0.0 | 0.0 | 0.00 | 0.00 | 0.00 | 65 | 1022.0 |
| 20260503012830 | 48 | 108 | 0.0 | 0.0 | 0.00 | 0.00 | 0.00 | 63 | 1022.0 |
| 20260503012320 | 49 | 108 | 0.0 | 0.0 | 0.00 | 0.00 | 0.00 | 61 | 1021.9 |
| 20260503011830 | 49 | 108 | 0.0 | 0.0 | 0.00 | 0.00 | 0.00 | 60 | 1021.8 |
| 20260503011320 | 50 | 108 | 0.0 | 0.0 | 0.00 | 0.00 | 0.00 | 59 | 1021.7 |
| 20260503010830 | 50 | 108 | 0.0 | 0.0 | 0.00 | 0.00 | 0.00 | 57 | 1021.6 |
| 20260503010321 | 51 | 108 | 0.0 | 0.9 | 0.00 | 0.00 | 0.00 | 56 | 1021.6 |
| 20260503005852 | 51 | 108 | 0.0 | 0.9 | 0.00 | 0.00 | 0.00 | 56 | 1021.5 |
| 20260503005321 | 52 | 108 | 0.0 | 0.0 | 0.00 | 0.00 | 0.00 | 53 | 1021.4 |
| 20260503004836 | 52 | 108 | 0.0 | 0.0 | 0.00 | 0.00 | 0.00 | 51 | 1021.4 |
| 20260503004324 | 53 | 99 | 0.0 | 0.9 | 0.00 | 0.00 | 0.00 | 51 | 1021.3 |
| 20260503003835 | 53 | 99 | 0.0 | 1.7 | 0.00 | 0.00 | 0.00 | 50 | 1021.2 |
| 20260503003326 | 53 | 99 | 0.9 | 1.7 | 0.00 | 0.00 | 0.00 | 48 | 1021.2 |
| 20260503002818 | 53 | 105 | 0.9 | 0.9 | 0.00 | 0.00 | 0.00 | 49 | 1021.1 |
| 20260503002328 | 53 | 105 | 0.0 | 0.9 | 0.00 | 0.00 | 0.00 | 49 | 1021.0 |
| 20260503001819 | 54 | 105 | 0.0 | 1.7 | 0.00 | 0.00 | 0.00 | 49 | 1020.9 |
| 20260503001330 | 54 | 105 | 0.0 | 1.7 | 0.00 | 0.00 | 0.00 | 46 | 1020.9 |
| 20260503000821 | 54 | 232 | 0.0 | 1.7 | 0.00 | 0.00 | 0.00 | 45 | 1020.8 |
| 20260503000331 | 54 | 109 | 0.0 | 2.6 | 0.00 | 0.00 | 0.00 | 46 | 1020.7 |
| 20260502235821 | 54 | 97 | 0.9 | 3.5 | 0.00 | 0.00 | 0.00 | 44 | 1020.6 |
| 20260502235331 | 55 | 128 | 0.0 | 3.5 | 0.00 | 0.00 | 0.00 | 44 | 1020.6 |
| 20260502234821 | 55 | 120 | 0.9 | 2.6 | 0.00 | 0.00 | 0.00 | 44 | 1020.6 |
| 20260502234331 | 55 | 119 | 0.0 | 4.3 | 0.00 | 0.00 | 0.00 | 43 | 1020.4 |
| 20260502233823 | 55 | 142 | 1.7 | 5.2 | 0.00 | 0.00 | 0.00 | 42 | 1020.4 |
| 20260502233332 | 56 | 143 | 1.7 | 5.2 | 0.00 | 0.00 | 0.00 | 42 | 1020.4 |
| 20260502232822 | 56 | 96 | 1.7 | 2.6 | 0.00 | 0.00 | 0.00 | 41 | 1020.3 |
| 20260502232317 | 56 | 108 | 0.9 | 2.6 | 0.00 | 0.00 | 0.00 | 40 | 1020.2 |
| 20260502231828 | 57 | 100 | 0.9 | 3.5 | 0.00 | 0.00 | 0.00 | 41 | 1020.1 |
| 20260502231318 | 57 | 86 | 0.9 | 2.6 | 0.00 | 0.00 | 0.00 | 38 | 1020.1 |
| 20260502230829 | 57 | 100 | 0.9 | 2.6 | 0.00 | 0.00 | 0.00 | 39 | 1020.1 |
| 20260502230318 | 57 | 94 | 0.9 | 4.3 | 0.00 | 0.00 | 0.00 | 38 | 1019.9 |
| 20260502225828 | 57 | 95 | 2.6 | 4.3 | 0.00 | 0.00 | 0.00 | 37 | 1019.9 |
| 20260502225318 | 58 | 106 | 0.0 | 2.6 | 0.00 | 0.00 | 0.00 | 39 | 1019.9 |
| 20260502224829 | 58 | 115 | 0.9 | 3.5 | 0.00 | 0.00 | 0.00 | 38 | 1020.0 |
| 20260502224324 | 58 | 99 | 0.0 | 3.5 | 0.00 | 0.00 | 0.00 | 39 | 1020.0 |
| 20260502223834 | 58 | 90 | 1.7 | 4.3 | 0.00 | 0.00 | 0.00 | 38 | 1019.9 |
| 20260502223324 | 58 | 119 | 1.7 | 4.3 | 0.00 | 0.00 | 0.00 | 37 | 1019.9 |
| 20260502222855 | 58 | 105 | 0.9 | 3.5 | 0.00 | 0.00 | 0.00 | 36 | 1019.7 |
| 20260502222324 | 58 | 103 | 0.9 | 5.2 | 0.00 | 0.00 | 0.00 | 36 | 1019.9 |
| 20260502221816 | 59 | 88 | 2.6 | 5.2 | 0.00 | 0.00 | 0.00 | 35 | 1019.7 |
| 20260502221326 | 59 | 100 | 1.7 | 6.1 | 0.00 | 0.00 | 0.00 | 34 | 1019.7 |
| 20260502220818 | 59 | 95 | 0.9 | 6.1 | 0.00 | 0.00 | 0.00 | 34 | 1019.6 |
| 20260502220329 | 59 | 103 | 2.6 | 5.2 | 0.00 | 0.00 | 0.00 | 33 | 1019.6 |
| 20260502215823 | 60 | 103 | 0.9 | 5.2 | 0.00 | 0.00 | 0.00 | 34 | 1019.6 |
| 20260502215352 | 60 | 115 | 1.7 | 7.8 | 0.00 | 0.00 | 0.00 | 35 | 1019.4 |
| 20260502214822 | 61 | 61 | 1.7 | 4.3 | 0.00 | 0.00 | 0.00 | 33 | 1019.4 |
| 20260502214333 | 61 | 96 | 1.7 | 5.2 | 0.00 | 0.00 | 0.00 | 34 | 1019.2 |
| 20260502213825 | 61 | 110 | 2.6 | 7.8 | 0.00 | 0.00 | 0.00 | 33 | 1019.2 |